Regional Weather Roundup
Issued by NWS

Home | Current Version | Previous Version | Text Only | Print | Product List | Glossary Off
Versions: 1 2 3 4 5 6 7 8 9 10 11 12 13 14 15 16 17 18 19 20 21 22 23 24 25 26 27 28 29 30 31 32 33 34 35 36 37 38 39 40 41 42 43 44 45 46 47 48 49 50

000
ASUS43 KIND 260709
RWRIN

WEATHER ROUNDUP FOR INDIANA
NATIONAL WEATHER SERVICE INDIANAPOLIS IN
300 AM EDT SUN APR 26 2015

NOTE: "FAIR" INDICATES FEW OR NO CLOUDS BELOW 12,000 FEET WITH NO
SIGNIFICANT WEATHER AND/OR OBSTRUCTIONS TO VISIBILITY.

* - STATION DOES NOT REPORT WEATHER SUCH AS PRECIPITATION OR FOG.

+ - STATION NOT QUALITY CONTROLLED BY THE NATIONAL WEATHER SERVICE.
    USE DATA WITH CAUTION...ESPECIALLY DEWPOINT AND RELATIVE
    HUMIDITY OBSERVATIONS.

INZ001>003-010>013-019-020-260800-
NORTHWEST INDIANA

CITY           SKY/WX    TMP DP  RH WIND       PRES   REMARKS
GARY /AIRPORT/ CLEAR     37  33  84 N3        29.87S
KNOX *+        CLEAR     36  30  80 N6        29.84R
LA PORTE +     PTCLDY    41  36  83 NE5       29.85S
MICHIGAN CITY+ CLEAR     32  32 100 CALM      29.86R FOG
MONTICELLO +   CLOUDY    41  35  77 N7        29.82R
VALPARAISO     CLEAR     37  34  89 N3        29.85R

$$

LMZ046-743>745-260800-
SOUTHERN LAKE MICHIGAN

STATION/POSITION TIME  TEMP    WIND        PRES    WAVE
                       AIR SEA DIR/SP/G            HT
                 (UTC) (F)     (DEG/KT/KT) (MB)    (FT)
BURNS HARBOR     0700   41      30/  5/  6 1011.5S
MICHIGAN CITY    0700   41     360/  8/ 10   N/A
5NW MICH CITY    0700   40 45   30/  8/ 12   N/A     2

$$

INZ004-005-014>016-021>024-260800-
NORTH CENTRAL INDIANA

CITY           SKY/WX    TMP DP  RH WIND       PRES   REMARKS
GOSHEN         CLEAR     37  29  72 NE7       29.83S
LOGANSPORT +   MOCLDY    41  32  70 N7        29.82R
PERU/GRISSOM   CLOUDY    42  33  72 NE10      29.79S
ROCHESTER +    PTCLDY    41  34  75 CALM      29.82S
SOUTH BEND     CLEAR     41  30  65 NE8       29.85R
WARSAW +       PTCLDY    36  32  87 NE3       29.82F

$$

INZ006>009-017-018-025>027-260800-
NORTHEAST INDIANA

CITY           SKY/WX    TMP DP  RH WIND       PRES   REMARKS
ANGOLA *+      CLEAR     37  27  65 NE7       29.83S
AUBURN +       CLEAR     37  30  75 NE6       29.83S
FORT WAYNE     MOCLDY    40  30  67 NE12      29.81S
HUNTINGTON +   MOCLDY    40  31  71 NE7       29.80S

$$

INZ028-029-035-036-043>045-051>053-260800-
WEST CENTRAL INDIANA

CITY           SKY/WX    TMP DP  RH WIND       PRES   REMARKS
CRAWFORDSVL +  CLOUDY    41  28  60 NE12      29.79R
GREENCASTLE +  CLOUDY    43  32  65 NE9       29.76F
LAFAYETTE      CLOUDY    43  32  65 NE10      29.81R
TERRE HAUTE    CLOUDY    45  39  79 NE12      29.75S

$$

INZ030>032-037>040-046>048-054>057-064-065-260800-
CENTRAL INDIANA

CITY           SKY/WX    TMP DP  RH WIND       PRES   REMARKS
CP ATTERBURY + CLOUDY    43  37  81 NE8       29.76R
FRANKFORT +    CLOUDY    42  32  66 N12       29.81R
GREENWOOD *+   CLOUDY    43  28  56 NE12      29.76
INDIANAPOLIS   CLOUDY    43  29  57 NE15      29.75R
-EAGLE CREEK   CLOUDY    43  29  57 NE10      29.77R
KOKOMO *+      MOCLDY    41  32  70 NE9       29.80S
MARION +       MOCLDY    40  31  70 NE8       29.80R
MT COMFORT *+  CLOUDY    41  25  52 NE9       29.77R
SHELBYVILLE    CLOUDY    45  31  58 NE13      29.75R
ZIONSVILLE +   CLOUDY    42  30  61 NE12      29.79R

$$

INZ033-034-041-042-049-050-058-059-260800-
EAST CENTRAL INDIANA

CITY           SKY/WX    TMP DP  RH WIND       PRES   REMARKS
MUNCIE         CLOUDY    41  31  67 NE14      29.78R

$$

INZ060-061-067>069-081>083-085>088-260800-
SOUTHWEST INDIANA

CITY           SKY/WX    TMP DP  RH WIND       PRES   REMARKS
EVANSVILLE     CLOUDY    49  45  86 NE12      29.71R
HUNTINGBURG *+ CLOUDY    46  43  87 NE13      29.71R
WASHINGTON +   CLOUDY    46  42  85 NE10      29.71S

$$

INZ062-063-066-070>080-084-089>092-260800-
SOUTH CENTRAL AND SOUTHEAST INDIANA

CITY           SKY/WX    TMP DP  RH WIND       PRES   REMARKS
BEDFORD +      CLOUDY    45  41  87 NE7       29.72S
BLOOMINGTON    CLOUDY    45  40  82 NE12G23   29.73S
MADISON *+     CLOUDY    45  41  87 NE7       29.73R
NORTH VERNON + CLOUDY    45  45 100 NE9       29.73R
SEYMOUR +      CLOUDY    46  41  81 NE10      29.72

$$



USA.gov is the U.S. government's official web portal to all federal, state and local government web resources and services.